Location: Clifton Park
(41.4873°N, 81.8024°W)
Time: 05:19:59
(UTC+00:00)

Meteor 1-16 Rocket - Pass Details

Date: 21 January 2020
Orbit: 790 x 908 km, 81.2° (Epoch: 25 February)

Event Time Altitude Azimuth Distance (km) Brightness Sun altitude
Rises 11:11:48 0° 191° (S) 3,519 7.4 -17.9°
Reaches altitude 10° 11:14:16 10° 192° (SSW) 2,583 6.7 -17.5°
Maximum altitude 11:20:11 80° 280° (W) 922 4.2 -16.4°
Drops below altitude 10° 11:26:05 10° 8° (N) 2,571 6.7 -15.3°
Sets 11:28:32 0° 9° (N) 3,501 7.4 -14.9°
